Date_Time,Julian_Date,Latitude,Longitude,Instrument_Depth,U,V,Speed,Direction
(yyyy-mm-dd hh:mn:ss UTC),(JD),(+ deg. North),(+ deg. East),(m),(cm/s),(cm/s),(cm/s),(deg True)
1981-07-23 18:30:00 UTC,2444809.270833,29.4519,-93.4333,0037,14.73,-6.25,16.0000,113.0000
1981-07-23 19:00:00 UTC,2444809.291667,29.4519,-93.4333,0037,14.55,-3.63,15.0000,104.0000
1981-07-23 19:30:00 UTC,2444809.312500,29.4519,-93.4333,0037,14.98,-0.79,15.0000,93.0000
1981-07-23 20:00:00 UTC,2444809.333333,29.4519,-93.4333,0037,15.94,1.39,16.0000,85.0000
1981-07-23 20:30:00 UTC,2444809.354167,29.4519,-93.4333,0037,15.38,4.41,16.0000,74.0000
1981-07-23 21:00:00 UTC,2444809.375000,29.4519,-93.4333,0037,13.12,7.27,15.0000,61.0000
1981-07-23 21:30:00 UTC,2444809.395833,29.4519,-93.4333,0037,12.29,8.60,15.0000,55.0000
1981-07-23 22:00:00 UTC,2444809.416667,29.4519,-93.4333,0037,13.26,8.95,16.0000,56.0000
1981-07-23 22:30:00 UTC,2444809.437500,29.4519,-93.4333,0037,15.26,9.54,18.0000,58.0000
1981-07-23 23:00:00 UTC,2444809.458333,29.4519,-93.4333,0037,18.00,10.82,21.0000,59.0000
1981-07-23 23:30:00 UTC,2444809.479167,29.4519,-93.4333,0037,19.60,9.99,22.0000,63.0000
1981-07-24 00:00:00 UTC,2444809.500000,29.4519,-93.4333,0037,20.67,7.52,22.0000,70.0000
1981-07-24 00:30:00 UTC,2444809.520833,29.4519,-93.4333,0037,21.35,5.32,22.0000,76.0000
1981-07-24 01:00:00 UTC,2444809.541667,29.4519,-93.4333,0037,21.73,3.44,22.0000,81.0000
1981-07-24 01:30:00 UTC,2444809.562500,29.4519,-93.4333,0037,21.79,3.06,22.0000,82.0000
1981-07-24 02:00:00 UTC,2444809.583333,29.4519,-93.4333,0037,22.78,3.20,23.0000,82.0000
1981-07-24 02:30:00 UTC,2444809.604167,29.4519,-93.4333,0037,22.83,2.80,23.0000,83.0000
1981-07-24 03:00:00 UTC,2444809.625000,29.4519,-93.4333,0037,22.97,1.20,23.0000,87.0000
1981-07-24 03:30:00 UTC,2444809.645833,29.4519,-93.4333,0037,21.97,-1.15,22.0000,93.0000
1981-07-24 04:00:00 UTC,2444809.666667,29.4519,-93.4333,0037,20.88,-2.20,21.0000,96.0000
1981-07-24 04:30:00 UTC,2444809.687500,29.4519,-93.4333,0037,19.85,-2.44,20.0000,97.0000
1981-07-24 05:00:00 UTC,2444809.708333,29.4519,-93.4333,0037,19.63,-3.82,20.0000,101.0000
1981-07-24 05:30:00 UTC,2444809.729167,29.4519,-93.4333,0037,19.63,-3.82,20.0000,101.0000
1981-07-24 06:00:00 UTC,2444809.750000,29.4519,-93.4333,0037,20.80,-2.92,21.0000,98.0000
1981-07-24 06:30:00 UTC,2444809.770833,29.4519,-93.4333,0037,23.99,-0.84,24.0000,92.0000
1981-07-24 07:00:00 UTC,2444809.791667,29.4519,-93.4333,0037,28.96,1.52,29.0000,87.0000
1981-07-24 07:30:00 UTC,2444809.812500,29.4519,-93.4333,0037,30.88,2.70,31.0000,85.0000
1981-07-24 08:00:00 UTC,2444809.833333,29.4519,-93.4333,0037,29.96,1.57,30.0000,87.0000
1981-07-24 08:30:00 UTC,2444809.854167,29.4519,-93.4333,0037,28.98,1.01,29.0000,88.0000
1981-07-24 09:00:00 UTC,2444809.875000,29.4519,-93.4333,0037,28.00,0.49,28.0000,89.0000
1981-07-24 09:30:00 UTC,2444809.895833,29.4519,-93.4333,0037,27.98,0.98,28.0000,88.0000
1981-07-24 10:00:00 UTC,2444809.916667,29.4519,-93.4333,0037,28.98,1.01,29.0000,88.0000
1981-07-24 10:30:00 UTC,2444809.937500,29.4519,-93.4333,0037,31.92,2.23,32.0000,86.0000
1981-07-24 11:00:00 UTC,2444809.958333,29.4519,-93.4333,0037,33.81,3.55,34.0000,84.0000
1981-07-24 11:30:00 UTC,2444809.979167,29.4519,-93.4333,0037,31.92,2.23,32.0000,86.0000
1981-07-24 12:00:00 UTC,2444810.000000,29.4519,-93.4333,0037,30.00,0.52,30.0000,89.0000
1981-07-24 12:30:00 UTC,2444810.020833,29.4519,-93.4333,0037,28.98,-1.01,29.0000,92.0000
1981-07-24 13:00:00 UTC,2444810.041667,29.4519,-93.4333,0037,28.96,-1.52,29.0000,93.0000
1981-07-24 13:30:00 UTC,2444810.062500,29.4519,-93.4333,0037,27.98,-0.98,28.0000,92.0000
1981-07-24 14:00:00 UTC,2444810.083333,29.4519,-93.4333,0037,25.96,-1.36,26.0000,93.0000
1981-07-24 14:30:00 UTC,2444810.104167,29.4519,-93.4333,0037,21.97,-1.15,22.0000,93.0000
1981-07-24 15:00:00 UTC,2444810.125000,29.4519,-93.4333,0037,19.00,0.33,19.0000,89.0000
1981-07-24 15:30:00 UTC,2444810.145833,29.4519,-93.4333,0037,18.97,0.99,19.0000,87.0000
1981-07-24 16:00:00 UTC,2444810.166667,29.4519,-93.4333,0037,17.98,0.94,18.0000,87.0000
1981-07-24 16:30:00 UTC,2444810.187500,29.4519,-93.4333,0037,16.00,-0.28,16.0000,91.0000
1981-07-24 17:00:00 UTC,2444810.208333,29.4519,-93.4333,0037,14.82,-2.35,15.0000,99.0000
1981-07-24 17:30:00 UTC,2444810.229167,29.4519,-93.4333,0037,12.36,-4.02,13.0000,108.0000
1981-07-24 18:00:00 UTC,2444810.250000,29.4519,-93.4333,0037,11.05,-4.69,12.0000,113.0000
1981-07-24 18:30:00 UTC,2444810.270833,29.4519,-93.4333,0037,8.02,-4.09,9.0000,117.0000
1981-07-24 19:00:00 UTC,2444810.291667,29.4519,-93.4333,0037,3.83,-3.21,5.0000,130.0000
1981-07-24 19:30:00 UTC,2444810.312500,29.4519,-93.4333,0037,-0.59,-0.81,1.0000,216.0000
1981-07-24 20:00:00 UTC,2444810.333333,29.4519,-93.4333,0037,-3.93,0.76,4.0000,281.0000
1981-07-24 20:30:00 UTC,2444810.354167,29.4519,-93.4333,0037,-7.25,3.38,8.0000,295.0000
1981-07-24 21:00:00 UTC,2444810.375000,29.4519,-93.4333,0037,-10.06,6.54,12.0000,303.0000
1981-07-24 21:30:00 UTC,2444810.395833,29.4519,-93.4333,0037,-12.43,10.07,16.0000,309.0000
1981-07-24 22:00:00 UTC,2444810.416667,29.4519,-93.4333,0037,-15.09,13.12,20.0000,311.0000
1981-07-24 22:30:00 UTC,2444810.437500,29.4519,-93.4333,0037,-15.36,14.32,21.0000,313.0000
1981-07-24 23:00:00 UTC,2444810.458333,29.4519,-93.4333,0037,-15.28,15.83,22.0000,316.0000
1981-07-24 23:30:00 UTC,2444810.479167,29.4519,-93.4333,0037,-16.26,16.26,23.0000,315.0000
1981-07-25 00:00:00 UTC,2444810.500000,29.4519,-93.4333,0037,-17.84,16.06,24.0000,312.0000
1981-07-25 00:30:00 UTC,2444810.520833,29.4519,-93.4333,0037,-18.70,18.06,26.0000,314.0000
1981-07-25 01:00:00 UTC,2444810.541667,29.4519,-93.4333,0037,-20.07,22.29,30.0000,318.0000
1981-07-25 01:30:00 UTC,2444810.562500,29.4519,-93.4333,0037,-21.65,24.91,33.0000,319.0000
1981-07-25 02:00:00 UTC,2444810.583333,29.4519,-93.4333,0037,-21.82,23.40,32.0000,317.0000
1981-07-25 02:30:00 UTC,2444810.604167,29.4519,-93.4333,0037,-19.78,21.21,29.0000,317.0000
1981-07-25 03:00:00 UTC,2444810.625000,29.4519,-93.4333,0037,-17.36,20.68,27.0000,320.0000
1981-07-25 03:30:00 UTC,2444810.645833,29.4519,-93.4333,0037,-16.01,20.49,26.0000,322.0000
1981-07-25 04:00:00 UTC,2444810.666667,29.4519,-93.4333,0037,-13.98,20.73,25.0000,326.0000
1981-07-25 04:30:00 UTC,2444810.687500,29.4519,-93.4333,0037,-12.00,20.78,24.0000,330.0000
1981-07-25 05:00:00 UTC,2444810.708333,29.4519,-93.4333,0037,-11.15,20.12,23.0000,331.0000
1981-07-25 05:30:00 UTC,2444810.729167,29.4519,-93.4333,0037,-11.00,19.05,22.0000,330.0000
1981-07-25 06:00:00 UTC,2444810.750000,29.4519,-93.4333,0037,-10.82,18.00,21.0000,329.0000
1981-07-25 06:30:00 UTC,2444810.770833,29.4519,-93.4333,0037,-9.70,17.49,20.0000,331.0000
1981-07-25 07:00:00 UTC,2444810.791667,29.4519,-93.4333,0037,-8.63,16.93,19.0000,333.0000
1981-07-25 07:30:00 UTC,2444810.812500,29.4519,-93.4333,0037,-8.63,16.93,19.0000,333.0000
1981-07-25 08:00:00 UTC,2444810.833333,29.4519,-93.4333,0037,-8.92,16.78,19.0000,332.0000
1981-07-25 08:30:00 UTC,2444810.854167,29.4519,-93.4333,0037,-8.45,15.89,18.0000,332.0000
1981-07-25 09:00:00 UTC,2444810.875000,29.4519,-93.4333,0037,-7.72,15.15,17.0000,333.0000
1981-07-25 09:30:00 UTC,2444810.895833,29.4519,-93.4333,0037,-7.32,16.44,18.0000,336.0000
1981-07-25 10:00:00 UTC,2444810.916667,29.4519,-93.4333,0037,-5.53,16.07,17.0000,341.0000
1981-07-25 10:30:00 UTC,2444810.937500,29.4519,-93.4333,0037,-4.94,15.22,16.0000,342.0000
1981-07-25 11:00:00 UTC,2444810.958333,29.4519,-93.4333,0037,-5.73,14.94,16.0000,339.0000
1981-07-25 11:30:00 UTC,2444810.979167,29.4519,-93.4333,0037,-6.25,14.73,16.0000,337.0000
1981-07-25 12:00:00 UTC,2444811.000000,29.4519,-93.4333,0037,-5.73,14.94,16.0000,339.0000
1981-07-25 12:30:00 UTC,2444811.020833,29.4519,-93.4333,0037,-5.99,14.83,16.0000,338.0000
1981-07-25 13:00:00 UTC,2444811.041667,29.4519,-93.4333,0037,-7.45,15.28,17.0000,334.0000
1981-07-25 13:30:00 UTC,2444811.062500,29.4519,-93.4333,0037,-8.45,15.89,18.0000,332.0000
1981-07-25 14:00:00 UTC,2444811.083333,29.4519,-93.4333,0037,-8.73,15.74,18.0000,331.0000
1981-07-25 14:30:00 UTC,2444811.104167,29.4519,-93.4333,0037,-8.50,14.72,17.0000,330.0000
1981-07-25 15:00:00 UTC,2444811.125000,29.4519,-93.4333,0037,-8.00,13.86,16.0000,330.0000
1981-07-25 15:30:00 UTC,2444811.145833,29.4519,-93.4333,0037,-7.76,13.99,16.0000,331.0000
1981-07-25 16:00:00 UTC,2444811.166667,29.4519,-93.4333,0037,-7.26,14.26,16.0000,333.0000
1981-07-25 16:30:00 UTC,2444811.187500,29.4519,-93.4333,0037,-7.18,15.41,17.0000,335.0000
1981-07-25 17:00:00 UTC,2444811.208333,29.4519,-93.4333,0037,-7.51,14.13,16.0000,332.0000
1981-07-25 17:30:00 UTC,2444811.229167,29.4519,-93.4333,0037,-7.64,10.52,13.0000,324.0000
1981-07-25 18:00:00 UTC,2444811.250000,29.4519,-93.4333,0037,-8.78,8.18,12.0000,313.0000
1981-07-25 18:30:00 UTC,2444811.270833,29.4519,-93.4333,0037,-9.95,6.71,12.0000,304.0000
1981-07-25 19:00:00 UTC,2444811.291667,29.4519,-93.4333,0037,-12.00,7.21,14.0000,301.0000
1981-07-25 19:30:00 UTC,2444811.312500,29.4519,-93.4333,0037,-13.86,8.00,16.0000,300.0000
1981-07-25 20:00:00 UTC,2444811.333333,29.4519,-93.4333,0037,-15.43,9.27,18.0000,301.0000
1981-07-25 20:30:00 UTC,2444811.354167,29.4519,-93.4333,0037,-15.10,9.80,18.0000,303.0000
1981-07-25 21:00:00 UTC,2444811.375000,29.4519,-93.4333,0037,-15.93,10.35,19.0000,303.0000
1981-07-25 21:30:00 UTC,2444811.395833,29.4519,-93.4333,0037,-15.93,10.35,19.0000,303.0000
1981-07-25 22:00:00 UTC,2444811.416667,29.4519,-93.4333,0037,-15.75,10.62,19.0000,304.0000
1981-07-25 22:30:00 UTC,2444811.437500,29.4519,-93.4333,0037,-16.18,11.76,20.0000,306.0000
1981-07-25 23:00:00 UTC,2444811.458333,29.4519,-93.4333,0037,-15.11,14.59,21.0000,314.0000
1981-07-25 23:30:00 UTC,2444811.479167,29.4519,-93.4333,0037,-13.85,17.10,22.0000,321.0000
1981-07-26 00:00:00 UTC,2444811.500000,29.4519,-93.4333,0037,-13.19,18.84,23.0000,325.0000
1981-07-26 00:30:00 UTC,2444811.520833,29.4519,-93.4333,0037,-12.36,20.57,24.0000,329.0000
1981-07-26 01:00:00 UTC,2444811.541667,29.4519,-93.4333,0037,-10.14,21.75,24.0000,335.0000
1981-07-26 01:30:00 UTC,2444811.562500,29.4519,-93.4333,0037,-7.42,22.83,24.0000,342.0000
1981-07-26 02:00:00 UTC,2444811.583333,29.4519,-93.4333,0037,-5.95,22.22,23.0000,345.0000
1981-07-26 02:30:00 UTC,2444811.604167,29.4519,-93.4333,0037,-4.95,21.44,22.0000,347.0000
1981-07-26 03:00:00 UTC,2444811.625000,29.4519,-93.4333,0037,-3.82,21.67,22.0000,350.0000
1981-07-26 03:30:00 UTC,2444811.645833,29.4519,-93.4333,0037,-3.06,21.79,22.0000,352.0000
1981-07-26 04:00:00 UTC,2444811.666667,29.4519,-93.4333,0037,-2.80,22.83,23.0000,353.0000
1981-07-26 04:30:00 UTC,2444811.687500,29.4519,-93.4333,0037,-2.51,23.87,24.0000,354.0000
1981-07-26 05:00:00 UTC,2444811.708333,29.4519,-93.4333,0037,-2.92,23.82,24.0000,353.0000
1981-07-26 05:30:00 UTC,2444811.729167,29.4519,-93.4333,0037,-2.68,21.84,22.0000,353.0000
1981-07-26 06:00:00 UTC,2444811.750000,29.4519,-93.4333,0037,-2.97,18.77,19.0000,351.0000
1981-07-26 06:30:00 UTC,2444811.770833,29.4519,-93.4333,0037,-3.05,15.71,16.0000,349.0000
1981-07-26 07:00:00 UTC,2444811.791667,29.4519,-93.4333,0037,-1.83,14.89,15.0000,353.0000
1981-07-26 07:30:00 UTC,2444811.812500,29.4519,-93.4333,0037,-0.28,16.00,16.0000,359.0000
1981-07-26 08:00:00 UTC,2444811.833333,29.4519,-93.4333,0037,0.28,16.00,16.0000,1.0000
1981-07-26 08:30:00 UTC,2444811.854167,29.4519,-93.4333,0037,-0.26,15.00,15.0000,359.0000
1981-07-26 09:00:00 UTC,2444811.875000,29.4519,-93.4333,0037,-2.91,13.69,14.0000,348.0000
1981-07-26 09:30:00 UTC,2444811.895833,29.4519,-93.4333,0037,-4.87,12.05,13.0000,338.0000
1981-07-26 10:00:00 UTC,2444811.916667,29.4519,-93.4333,0037,-5.86,13.81,15.0000,337.0000
1981-07-26 10:30:00 UTC,2444811.937500,29.4519,-93.4333,0037,-6.64,15.65,17.0000,337.0000
1981-07-26 11:00:00 UTC,2444811.958333,29.4519,-93.4333,0037,-7.18,19.73,21.0000,340.0000
1981-07-26 11:30:00 UTC,2444811.979167,29.4519,-93.4333,0037,-5.95,22.22,23.0000,345.0000
1981-07-26 12:00:00 UTC,2444812.000000,29.4519,-93.4333,0037,-5.56,22.32,23.0000,346.0000
1981-07-26 12:30:00 UTC,2444812.020833,29.4519,-93.4333,0037,-6.72,21.99,23.0000,343.0000
1981-07-26 13:00:00 UTC,2444812.041667,29.4519,-93.4333,0037,-8.99,21.17,23.0000,337.0000
1981-07-26 13:30:00 UTC,2444812.062500,29.4519,-93.4333,0037,-10.44,20.49,23.0000,333.0000
1981-07-26 14:00:00 UTC,2444812.083333,29.4519,-93.4333,0037,-10.67,19.24,22.0000,331.0000
1981-07-26 14:30:00 UTC,2444812.104167,29.4519,-93.4333,0037,-11.44,17.61,21.0000,327.0000
1981-07-26 15:00:00 UTC,2444812.125000,29.4519,-93.4333,0037,-12.64,16.77,21.0000,323.0000
1981-07-26 15:30:00 UTC,2444812.145833,29.4519,-93.4333,0037,-12.93,16.55,21.0000,322.0000
1981-07-26 16:00:00 UTC,2444812.166667,29.4519,-93.4333,0037,-13.12,15.09,20.0000,319.0000
1981-07-26 16:30:00 UTC,2444812.187500,29.4519,-93.4333,0037,-13.44,13.43,19.0000,315.0000
1981-07-26 17:00:00 UTC,2444812.208333,29.4519,-93.4333,0037,-12.43,11.59,17.0000,313.0000
1981-07-26 17:30:00 UTC,2444812.229167,29.4519,-93.4333,0037,-12.14,8.82,15.0000,306.0000
1981-07-26 18:00:00 UTC,2444812.250000,29.4519,-93.4333,0037,-11.58,5.90,13.0000,297.0000
1981-07-26 18:30:00 UTC,2444812.270833,29.4519,-93.4333,0037,-11.78,5.49,13.0000,295.0000
1981-07-26 19:00:00 UTC,2444812.291667,29.4519,-93.4333,0037,-12.05,4.87,13.0000,292.0000
1981-07-26 19:30:00 UTC,2444812.312500,29.4519,-93.4333,0037,-12.56,3.36,13.0000,285.0000
1981-07-26 20:00:00 UTC,2444812.333333,29.4519,-93.4333,0037,-12.90,1.58,13.0000,277.0000
1981-07-26 20:30:00 UTC,2444812.354167,29.4519,-93.4333,0037,-12.93,-1.36,13.0000,264.0000
1981-07-26 21:00:00 UTC,2444812.375000,29.4519,-93.4333,0037,-13.90,-1.71,14.0000,263.0000
1981-07-26 21:30:00 UTC,2444812.395833,29.4519,-93.4333,0037,-13.95,1.22,14.0000,275.0000
1981-07-26 22:00:00 UTC,2444812.416667,29.4519,-93.4333,0037,-14.55,3.63,15.0000,284.0000
1981-07-26 22:30:00 UTC,2444812.437500,29.4519,-93.4333,0037,-16.69,6.74,18.0000,292.0000
1981-07-26 23:00:00 UTC,2444812.458333,29.4519,-93.4333,0037,-17.32,10.00,20.0000,300.0000
1981-07-26 23:30:00 UTC,2444812.479167,29.4519,-93.4333,0037,-17.80,12.93,22.0000,306.0000
1981-07-27 00:00:00 UTC,2444812.500000,29.4519,-93.4333,0037,-16.97,16.97,24.0000,315.0000
1981-07-27 00:30:00 UTC,2444812.520833,29.4519,-93.4333,0037,-15.05,19.97,25.0000,323.0000
1981-07-27 01:00:00 UTC,2444812.541667,29.4519,-93.4333,0037,-13.39,22.29,26.0000,329.0000
1981-07-27 01:30:00 UTC,2444812.562500,29.4519,-93.4333,0037,-13.50,23.38,27.0000,330.0000
1981-07-27 02:00:00 UTC,2444812.583333,29.4519,-93.4333,0037,-13.91,23.14,27.0000,329.0000
1981-07-27 02:30:00 UTC,2444812.604167,29.4519,-93.4333,0037,-12.68,23.84,27.0000,332.0000
1981-07-27 03:00:00 UTC,2444812.625000,29.4519,-93.4333,0037,-10.98,24.67,27.0000,336.0000
1981-07-27 03:30:00 UTC,2444812.645833,29.4519,-93.4333,0037,-10.58,23.75,26.0000,336.0000
1981-07-27 04:00:00 UTC,2444812.666667,29.4519,-93.4333,0037,-9.76,21.93,24.0000,336.0000
1981-07-27 04:30:00 UTC,2444812.687500,29.4519,-93.4333,0037,-8.24,21.47,23.0000,339.0000
1981-07-27 05:00:00 UTC,2444812.708333,29.4519,-93.4333,0037,-5.24,18.26,19.0000,344.0000
1981-07-27 05:30:00 UTC,2444812.729167,29.4519,-93.4333,0037,-1.57,14.92,15.0000,354.0000
1981-07-27 06:00:00 UTC,2444812.750000,29.4519,-93.4333,0037,1.46,11.91,12.0000,7.0000
1981-07-27 06:30:00 UTC,2444812.770833,29.4519,-93.4333,0037,4.38,8.99,10.0000,26.0000
1981-07-27 07:00:00 UTC,2444812.791667,29.4519,-93.4333,0037,7.37,5.16,9.0000,55.0000
1981-07-27 07:30:00 UTC,2444812.812500,29.4519,-93.4333,0037,7.92,1.11,8.0000,82.0000
1981-07-27 08:00:00 UTC,2444812.833333,29.4519,-93.4333,0037,7.73,-2.07,8.0000,105.0000
1981-07-27 08:30:00 UTC,2444812.854167,29.4519,-93.4333,0037,4.60,-3.86,6.0000,130.0000
1981-07-27 09:00:00 UTC,2444812.875000,29.4519,-93.4333,0037,2.05,-5.64,6.0000,160.0000
1981-07-27 09:30:00 UTC,2444812.895833,29.4519,-93.4333,0037,0.00,-6.00,6.0000,180.0000
1981-07-27 10:00:00 UTC,2444812.916667,29.4519,-93.4333,0037,-0.63,-5.97,6.0000,186.0000
1981-07-27 10:30:00 UTC,2444812.937500,29.4519,-93.4333,0037,-1.14,-5.89,6.0000,191.0000
1981-07-27 11:00:00 UTC,2444812.958333,29.4519,-93.4333,0037,-2.58,-4.29,5.0000,211.0000
1981-07-27 11:30:00 UTC,2444812.979167,29.4519,-93.4333,0037,-4.24,-2.65,5.0000,238.0000
1981-07-27 12:00:00 UTC,2444813.000000,29.4519,-93.4333,0037,-2.80,-1.08,3.0000,249.0000
1981-07-27 12:30:00 UTC,2444813.020833,29.4519,-93.4333,0037,-1.81,-0.85,2.0000,245.0000
1981-07-27 13:00:00 UTC,2444813.041667,29.4519,-93.4333,0037,-2.70,-1.32,3.0000,244.0000
1981-07-27 13:30:00 UTC,2444813.062500,29.4519,-93.4333,0037,-2.87,-0.88,3.0000,253.0000
1981-07-27 14:00:00 UTC,2444813.083333,29.4519,-93.4333,0037,-1.91,0.58,2.0000,287.0000
1981-07-27 14:30:00 UTC,2444813.104167,29.4519,-93.4333,0037,-1.66,1.12,2.0000,304.0000
1981-07-27 15:00:00 UTC,2444813.125000,29.4519,-93.4333,0037,-2.00,-0.14,2.0000,266.0000
1981-07-27 15:30:00 UTC,2444813.145833,29.4519,-93.4333,0037,-1.55,-2.57,3.0000,211.0000
1981-07-27 16:00:00 UTC,2444813.166667,29.4519,-93.4333,0037,0.17,-5.00,5.0000,178.0000
1981-07-27 16:30:00 UTC,2444813.187500,29.4519,-93.4333,0037,1.93,-6.73,7.0000,164.0000
1981-07-27 17:00:00 UTC,2444813.208333,29.4519,-93.4333,0037,4.09,-8.02,9.0000,153.0000
1981-07-27 17:30:00 UTC,2444813.229167,29.4519,-93.4333,0037,5.70,-11.68,13.0000,154.0000
1981-07-27 18:00:00 UTC,2444813.250000,29.4519,-93.4333,0037,5.02,-13.07,14.0000,159.0000
1981-07-27 18:30:00 UTC,2444813.270833,29.4519,-93.4333,0037,3.63,-14.55,15.0000,166.0000
1981-07-27 19:00:00 UTC,2444813.291667,29.4519,-93.4333,0037,2.37,-16.83,17.0000,172.0000
1981-07-27 19:30:00 UTC,2444813.312500,29.4519,-93.4333,0037,2.37,-16.83,17.0000,172.0000
1981-07-27 20:00:00 UTC,2444813.333333,29.4519,-93.4333,0037,2.66,-16.79,17.0000,171.0000
1981-07-27 20:30:00 UTC,2444813.354167,29.4519,-93.4333,0037,2.32,-18.86,19.0000,173.0000
1981-07-27 21:00:00 UTC,2444813.375000,29.4519,-93.4333,0037,2.32,-18.86,19.0000,173.0000
1981-07-27 21:30:00 UTC,2444813.395833,29.4519,-93.4333,0037,2.32,-18.86,19.0000,173.0000
1981-07-27 22:00:00 UTC,2444813.416667,29.4519,-93.4333,0037,0.30,-17.00,17.0000,179.0000
1981-07-27 22:30:00 UTC,2444813.437500,29.4519,-93.4333,0037,-3.14,-12.61,13.0000,194.0000
1981-07-27 23:00:00 UTC,2444813.458333,29.4519,-93.4333,0037,-6.36,-6.36,9.0000,225.0000
1981-07-27 23:30:00 UTC,2444813.479167,29.4519,-93.4333,0037,-7.90,-1.25,8.0000,261.0000
1981-07-28 00:00:00 UTC,2444813.500000,29.4519,-93.4333,0037,-8.77,2.02,9.0000,283.0000
1981-07-28 00:30:00 UTC,2444813.520833,29.4519,-93.4333,0037,-9.40,3.42,10.0000,290.0000
1981-07-28 01:00:00 UTC,2444813.541667,29.4519,-93.4333,0037,-9.80,4.99,11.0000,297.0000
1981-07-28 01:30:00 UTC,2444813.562500,29.4519,-93.4333,0037,-9.58,7.22,12.0000,307.0000
1981-07-28 02:00:00 UTC,2444813.583333,29.4519,-93.4333,0037,-8.34,8.63,12.0000,316.0000
1981-07-28 02:30:00 UTC,2444813.604167,29.4519,-93.4333,0037,-6.89,11.02,13.0000,328.0000
1981-07-28 03:00:00 UTC,2444813.625000,29.4519,-93.4333,0037,-3.80,12.43,13.0000,343.0000
1981-07-28 03:30:00 UTC,2444813.645833,29.4519,-93.4333,0037,-2.92,12.67,13.0000,347.0000
1981-07-28 04:00:00 UTC,2444813.666667,29.4519,-93.4333,0037,-3.51,11.48,12.0000,343.0000
1981-07-28 04:30:00 UTC,2444813.687500,29.4519,-93.4333,0037,-3.42,9.40,10.0000,340.0000
1981-07-28 05:00:00 UTC,2444813.708333,29.4519,-93.4333,0037,-3.25,7.31,8.0000,336.0000
1981-07-28 05:30:00 UTC,2444813.729167,29.4519,-93.4333,0037,-3.38,7.25,8.0000,335.0000
1981-07-28 06:00:00 UTC,2444813.750000,29.4519,-93.4333,0037,-1.25,5.87,6.0000,348.0000
1981-07-28 06:30:00 UTC,2444813.770833,29.4519,-93.4333,0037,1.29,4.83,5.0000,15.0000
1981-07-28 07:00:00 UTC,2444813.791667,29.4519,-93.4333,0037,2.57,1.55,3.0000,59.0000
1981-07-28 07:30:00 UTC,2444813.812500,29.4519,-93.4333,0037,3.78,-1.30,4.0000,109.0000
1981-07-28 08:00:00 UTC,2444813.833333,29.4519,-93.4333,0037,4.10,-2.87,5.0000,125.0000
1981-07-28 08:30:00 UTC,2444813.854167,29.4519,-93.4333,0037,5.95,-5.35,8.0000,132.0000
1981-07-28 09:00:00 UTC,2444813.875000,29.4519,-93.4333,0037,6.02,-6.69,9.0000,138.0000
1981-07-28 09:30:00 UTC,2444813.895833,29.4519,-93.4333,0037,6.02,-7.99,10.0000,143.0000
1981-07-28 10:00:00 UTC,2444813.916667,29.4519,-93.4333,0037,6.02,-7.99,10.0000,143.0000
1981-07-28 10:30:00 UTC,2444813.937500,29.4519,-93.4333,0037,6.56,-7.55,10.0000,139.0000
1981-07-28 11:00:00 UTC,2444813.958333,29.4519,-93.4333,0037,7.31,-6.82,10.0000,133.0000
1981-07-28 11:30:00 UTC,2444813.979167,29.4519,-93.4333,0037,7.77,-6.29,10.0000,129.0000
1981-07-28 12:00:00 UTC,2444814.000000,29.4519,-93.4333,0037,6.89,-5.79,9.0000,130.0000
1981-07-28 12:30:00 UTC,2444814.020833,29.4519,-93.4333,0037,6.04,-5.25,8.0000,131.0000
1981-07-28 13:00:00 UTC,2444814.041667,29.4519,-93.4333,0037,6.00,-3.61,7.0000,121.0000
1981-07-28 13:30:00 UTC,2444814.062500,29.4519,-93.4333,0037,7.73,-2.07,8.0000,105.0000
1981-07-28 14:00:00 UTC,2444814.083333,29.4519,-93.4333,0037,8.83,-1.72,9.0000,101.0000
1981-07-28 14:30:00 UTC,2444814.104167,29.4519,-93.4333,0037,9.66,-2.59,10.0000,105.0000
1981-07-28 15:00:00 UTC,2444814.125000,29.4519,-93.4333,0037,10.20,-4.12,11.0000,112.0000
1981-07-28 15:30:00 UTC,2444814.145833,29.4519,-93.4333,0037,9.33,-5.83,11.0000,122.0000
1981-07-28 16:00:00 UTC,2444814.166667,29.4519,-93.4333,0037,6.25,-6.47,9.0000,136.0000
1981-07-28 16:30:00 UTC,2444814.187500,29.4519,-93.4333,0037,4.36,-7.87,9.0000,151.0000
1981-07-28 17:00:00 UTC,2444814.208333,29.4519,-93.4333,0037,2.60,-7.56,8.0000,161.0000
1981-07-28 17:30:00 UTC,2444814.229167,29.4519,-93.4333,0037,2.62,-6.49,7.0000,158.0000
1981-07-28 18:00:00 UTC,2444814.250000,29.4519,-93.4333,0037,3.81,-5.87,7.0000,147.0000
1981-07-28 18:30:00 UTC,2444814.270833,29.4519,-93.4333,0037,4.12,-6.86,8.0000,149.0000
1981-07-28 19:00:00 UTC,2444814.291667,29.4519,-93.4333,0037,3.40,-10.46,11.0000,162.0000
1981-07-28 19:30:00 UTC,2444814.312500,29.4519,-93.4333,0037,1.83,-14.89,15.0000,173.0000
1981-07-28 20:00:00 UTC,2444814.333333,29.4519,-93.4333,0037,0.33,-19.00,19.0000,179.0000
1981-07-28 20:30:00 UTC,2444814.354167,29.4519,-93.4333,0037,-0.70,-19.99,20.0000,182.0000
1981-07-28 21:00:00 UTC,2444814.375000,29.4519,-93.4333,0037,-0.35,-20.00,20.0000,181.0000
1981-07-28 21:30:00 UTC,2444814.395833,29.4519,-93.4333,0037,0.99,-18.97,19.0000,177.0000
1981-07-28 22:00:00 UTC,2444814.416667,29.4519,-93.4333,0037,1.33,-18.95,19.0000,176.0000
1981-07-28 22:30:00 UTC,2444814.437500,29.4519,-93.4333,0037,-0.63,-17.99,18.0000,182.0000
1981-07-28 23:00:00 UTC,2444814.458333,29.4519,-93.4333,0037,-2.95,-16.74,17.0000,190.0000
1981-07-28 23:30:00 UTC,2444814.479167,29.4519,-93.4333,0037,-5.86,-13.81,15.0000,203.0000
1981-07-29 00:00:00 UTC,2444814.500000,29.4519,-93.4333,0037,-8.17,-7.36,11.0000,228.0000
1981-07-29 00:30:00 UTC,2444814.520833,29.4519,-93.4333,0037,-9.00,-0.00,9.0000,270.0000
1981-07-29 01:00:00 UTC,2444814.541667,29.4519,-93.4333,0037,-7.71,4.64,9.0000,301.0000
1981-07-29 01:30:00 UTC,2444814.562500,29.4519,-93.4333,0037,-6.29,7.77,10.0000,321.0000
1981-07-29 02:00:00 UTC,2444814.583333,29.4519,-93.4333,0037,-5.63,10.60,12.0000,332.0000
1981-07-29 02:30:00 UTC,2444814.604167,29.4519,-93.4333,0037,-5.92,12.69,14.0000,335.0000
1981-07-29 03:00:00 UTC,2444814.625000,29.4519,-93.4333,0037,-7.26,14.26,16.0000,333.0000
1981-07-29 03:30:00 UTC,2444814.645833,29.4519,-93.4333,0037,-8.45,15.89,18.0000,332.0000
1981-07-29 04:00:00 UTC,2444814.666667,29.4519,-93.4333,0037,-8.13,18.27,20.0000,336.0000
1981-07-29 04:30:00 UTC,2444814.687500,29.4519,-93.4333,0037,-6.18,19.02,20.0000,342.0000
1981-07-29 05:00:00 UTC,2444814.708333,29.4519,-93.4333,0037,-3.47,19.70,20.0000,350.0000
1981-07-29 05:30:00 UTC,2444814.729167,29.4519,-93.4333,0037,-0.37,21.00,21.0000,359.0000
1981-07-29 06:00:00 UTC,2444814.750000,29.4519,-93.4333,0037,1.46,20.95,21.0000,4.0000
1981-07-29 06:30:00 UTC,2444814.770833,29.4519,-93.4333,0037,3.29,20.74,21.0000,9.0000
1981-07-29 07:00:00 UTC,2444814.791667,29.4519,-93.4333,0037,5.85,19.13,20.0000,17.0000